| time (UTC) | temp F | wind direction | speed MPH | gust MPH | rain 1hr in | rain 24hr in | rain mn in | humidity % | barometer mb |
| 20260510130056 | 57 | 125 | 0.0 | 0.0 | 0.01 | 0.03 | 0.01 | 94 | 1012.8 |
| 20260510124609 | 55 | 181 | 0.0 | 0.0 | 0.01 | 0.03 | 0.01 | 95 | 1012.9 |
| 20260510123052 | 54 | 171 | 0.0 | 0.0 | 0.00 | 0.02 | 0.00 | 95 | 1012.8 |
| 20260510121548 | 53 | 11 | 0.0 | 0.0 | 0.00 | 0.02 | 0.00 | 95 | 1012.6 |
| 20260510120046 | 53 | 11 | 0.0 | 0.0 | 0.00 | 0.02 | 0.00 | 95 | 1012.3 |
| 20260510114544 | 52 | 11 | 0.0 | 0.0 | 0.00 | 0.02 | 0.00 | 95 | 1012.2 |
| 20260510113045 | 51 | 11 | 0.0 | 0.0 | 0.00 | 0.02 | 0.00 | 95 | 1012.1 |
| 20260510111559 | 51 | 16 | 0.0 | 0.0 | 0.00 | 0.02 | 0.00 | 95 | 1012.0 |
| 20260510110037 | 50 | 16 | 0.0 | 0.0 | 0.00 | 0.02 | 0.00 | 95 | 1011.9 |
| 20260510104541 | 49 | 16 | 0.0 | 0.0 | 0.00 | 0.02 | 0.00 | 95 | 1011.7 |
| 20260510103037 | 49 | 16 | 0.0 | 0.0 | 0.00 | 0.02 | 0.00 | 95 | 1011.5 |
| 20260510101533 | 49 | 16 | 0.0 | 0.0 | 0.00 | 0.02 | 0.00 | 95 | 1011.2 |
| 20260510100035 | 49 | 16 | 0.0 | 0.0 | 0.00 | 0.02 | 0.00 | 94 | 1011.3 |
| 20260510094533 | 49 | 16 | 0.0 | 0.0 | 0.00 | 0.02 | 0.00 | 94 | 1010.9 |
| 20260510093032 | 49 | 16 | 0.0 | 0.0 | 0.00 | 0.02 | 0.00 | 94 | 1011.0 |
| 20260510091548 | 48 | 16 | 0.0 | 0.0 | 0.00 | 0.02 | 0.00 | 94 | 1011.0 |
| 20260510090033 | 48 | 331 | 0.0 | 0.0 | 0.00 | 0.02 | 0.00 | 94 | 1011.0 |
| 20260510084531 | 48 | 329 | 0.0 | 0.0 | 0.00 | 0.02 | 0.00 | 94 | 1011.5 |
| 20260510083029 | 47 | 43 | 0.0 | 7.0 | 0.00 | 0.02 | 0.00 | 94 | 1010.9 |
| 20260510081536 | 46 | 76 | 0.0 | 0.0 | 0.00 | 0.02 | 0.00 | 94 | 1010.3 |
| 20260510080035 | 47 | 78 | 0.0 | 0.0 | 0.00 | 0.02 | 0.00 | 94 | 1010.2 |
| 20260510074529 | 47 | 78 | 0.0 | 0.0 | 0.00 | 0.02 | 0.00 | 94 | 1010.3 |
| 20260510073034 | 47 | 78 | 0.0 | 0.0 | 0.00 | 0.02 | 0.00 | 94 | 1010.2 |
| 20260510071533 | 47 | 78 | 0.0 | 0.0 | 0.00 | 0.02 | 0.00 | 94 | 1010.0 |
| 20260510070026 | 47 | 78 | 0.0 | 0.0 | 0.00 | 0.02 | 0.00 | 94 | 1009.9 |
| 20260510064546 | 47 | 78 | 0.0 | 0.0 | 0.00 | 0.02 | 0.00 | 94 | 1009.7 |
| 20260510063027 | 48 | 78 | 0.0 | 0.0 | 0.00 | 0.02 | 0.00 | 94 | 1009.7 |
| 20260510061532 | 48 | 78 | 0.0 | 0.0 | 0.00 | 0.02 | 0.00 | 94 | 1009.8 |
| 20260510060029 | 48 | 78 | 0.0 | 0.0 | 0.00 | 0.02 | 0.00 | 93 | 1009.7 |
| 20260510054517 | 49 | 78 | 0.0 | 0.0 | 0.00 | 0.02 | 0.00 | 93 | 1009.9 |
| 20260510053013 | 49 | 78 | 0.0 | 0.0 | 0.00 | 0.02 | 0.00 | 94 | 1010.0 |
| 20260510051511 | 49 | 78 | 0.0 | 0.0 | 0.00 | 0.02 | 0.00 | 93 | 1010.2 |
| 20260510050010 | 49 | 78 | 0.0 | 0.0 | 0.00 | 0.02 | 0.00 | 93 | 1010.2 |
| 20260510044509 | 50 | 78 | 0.0 | 0.0 | 0.00 | 0.02 | 0.00 | 93 | 1010.3 |
| 20260510043007 | 50 | 78 | 0.0 | 0.0 | 0.00 | 0.02 | 0.00 | 93 | 1010.3 |
| 20260510041505 | 50 | 78 | 0.0 | 0.0 | 0.00 | 0.02 | 0.00 | 93 | 1010.4 |
| 20260510040003 | 50 | 78 | 0.0 | 0.0 | 0.00 | 0.02 | 0.00 | 93 | 1010.5 |
| 20260510034502 | 50 | 78 | 0.0 | 0.0 | 0.00 | 0.02 | 0.02 | 93 | 1010.4 |
| 20260510033101 | 51 | 78 | 0.0 | 0.0 | 0.00 | 0.02 | 0.02 | 93 | 1010.4 |
| 20260510031609 | 51 | 78 | 0.0 | 0.0 | 0.00 | 0.02 | 0.02 | 93 | 1010.7 |
| 20260510030105 | 51 | 78 | 0.0 | 0.0 | 0.00 | 0.02 | 0.02 | 93 | 1010.0 |
| 20260510024557 | 52 | 78 | 0.0 | 0.0 | 0.00 | 0.02 | 0.02 | 93 | 1009.9 |
| 20260510023055 | 52 | 78 | 0.0 | 0.0 | 0.00 | 0.02 | 0.02 | 93 | 1010.2 |
| 20260510021553 | 52 | 78 | 0.0 | 0.0 | 0.00 | 0.02 | 0.02 | 92 | 1010.1 |
| 20260510020052 | 53 | 78 | 0.0 | 0.0 | 0.00 | 0.02 | 0.02 | 92 | 1009.8 |
| 20260510014552 | 53 | 78 | 0.0 | 0.0 | 0.00 | 0.02 | 0.02 | 92 | 1009.7 |
| 20260510013053 | 53 | 78 | 0.0 | 0.0 | 0.00 | 0.02 | 0.02 | 92 | 1009.8 |
| 20260510011548 | 53 | 78 | 0.0 | 0.0 | 0.00 | 0.02 | 0.02 | 92 | 1009.7 |
| 20260510010048 | 53 | 78 | 0.0 | 0.0 | 0.00 | 0.02 | 0.02 | 92 | 1009.4 |
| 20260510004547 | 53 | 78 | 0.0 | 0.0 | 0.00 | 0.02 | 0.02 | 91 | 1009.3 |
| 20260510003055 | 54 | 78 | 0.0 | 0.0 | 0.00 | 0.02 | 0.02 | 91 | 1009.3 |
| 20260510001549 | 55 | 78 | 0.0 | 0.0 | 0.00 | 0.02 | 0.02 | 90 | 1009.2 |
| 20260510000046 | 55 | 78 | 0.0 | 0.0 | 0.00 | 0.02 | 0.02 | 90 | 1009.2 |
| 20260509234600 | 56 | 78 | 0.0 | 0.0 | 0.00 | 0.02 | 0.02 | 90 | 1009.2 |
| 20260509233051 | 57 | 78 | 0.0 | 0.0 | 0.00 | 0.02 | 0.02 | 89 | 1009.3 |
| 20260509231602 | 57 | 78 | 0.0 | 0.0 | 0.00 | 0.02 | 0.02 | 88 | 1009.2 |
| 20260509230044 | 58 | 78 | 0.0 | 0.0 | 0.00 | 0.02 | 0.02 | 88 | 1009.1 |
| 20260509224542 | 58 | 78 | 0.0 | 0.0 | 0.00 | 0.02 | 0.02 | 88 | 1009.1 |
| 20260509223042 | 59 | 299 | 0.0 | 0.0 | 0.00 | 0.02 | 0.02 | 88 | 1009.3 |
| 20260509221541 | 58 | 279 | 0.0 | 0.0 | 0.00 | 0.02 | 0.02 | 89 | 1009.1 |
| 20260509220040 | 58 | 279 | 0.0 | 0.0 | 0.00 | 0.02 | 0.02 | 90 | 1009.2 |
| 20260509214540 | 57 | 279 | 0.0 | 0.0 | 0.00 | 0.02 | 0.02 | 90 | 1009.3 |
| 20260509213040 | 58 | 279 | 0.0 | 0.0 | 0.00 | 0.02 | 0.02 | 89 | 1009.2 |
| 20260509211544 | 58 | 279 | 0.0 | 0.0 | 0.00 | 0.02 | 0.02 | 89 | 1009.1 |
| 20260509210052 | 58 | 35 | 0.0 | 0.0 | 0.00 | 0.02 | 0.02 | 89 | 1009.1 |
| 20260509204538 | 58 | 35 | 0.0 | 0.0 | 0.00 | 0.02 | 0.02 | 87 | 1009.2 |
| 20260509203043 | 59 | 35 | 0.0 | 0.0 | 0.00 | 0.02 | 0.02 | 84 | 1009.4 |
| 20260509201547 | 60 | 36 | 0.0 | 6.0 | 0.00 | 0.02 | 0.02 | 83 | 1009.1 |
| 20260509200037 | 60 | 16 | 0.0 | 9.0 | 0.01 | 0.02 | 0.02 | 85 | 1009.5 |
| 20260509194536 | 58 | 13 | 0.0 | 0.0 | 0.01 | 0.02 | 0.02 | 89 | 1009.2 |
| 20260509193035 | 57 | 346 | 0.0 | 8.0 | 0.01 | 0.02 | 0.02 | 89 | 1009.7 |
| 20260509191538 | 57 | 355 | 0.0 | 0.0 | 0.01 | 0.02 | 0.02 | 89 | 1009.8 |
| 20260509190034 | 57 | 12 | 0.0 | 6.0 | 0.00 | 0.01 | 0.01 | 88 | 1010.0 |
| 20260509184539 | 58 | 306 | 0.0 | 0.0 | 0.00 | 0.01 | 0.01 | 85 | 1010.3 |
| 20260509183033 | 58 | 274 | 0.0 | 0.0 | 0.00 | 0.01 | 0.01 | 86 | 1010.4 |
| 20260509181527 | 57 | 313 | 0.0 | 0.0 | 0.00 | 0.01 | 0.01 | 86 | 1010.5 |
| 20260509180026 | 58 | 335 | 1.0 | 5.0 | 0.00 | 0.01 | 0.01 | 87 | 1010.5 |
| 20260509174526 | 58 | 321 | 0.0 | 5.0 | 0.00 | 0.01 | 0.01 | 86 | 1010.7 |
| 20260509173029 | 59 | 314 | 0.0 | 2.0 | 0.00 | 0.01 | 0.01 | 84 | 1010.7 |
| 20260509171533 | 60 | 298 | 0.0 | 0.0 | 0.00 | 0.01 | 0.01 | 84 | 1010.4 |
| 20260509170025 | 60 | 289 | 0.0 | 3.0 | 0.00 | 0.01 | 0.01 | 84 | 1010.3 |
| 20260509164524 | 61 | 348 | 0.0 | 0.0 | 0.00 | 0.01 | 0.01 | 86 | 1010.5 |
| 20260509163046 | 59 | 304 | 0.0 | 0.0 | 0.01 | 0.01 | 0.01 | 85 | 1010.4 |
| 20260509161529 | 59 | 317 | 0.0 | 0.0 | 0.01 | 0.01 | 0.01 | 85 | 1010.4 |
| 20260509160022 | 60 | 317 | 0.0 | 0.0 | 0.01 | 0.01 | 0.01 | 86 | 1010.9 |
| 20260509154532 | 60 | 312 | 0.0 | 6.0 | 0.01 | 0.01 | 0.01 | 83 | 1011.1 |
| 20260509153025 | 62 | 294 | 1.0 | 9.0 | 0.00 | 0.00 | 0.00 | 76 | 1011.4 |
| 20260509151521 | 62 | 305 | 0.0 | 3.0 | 0.00 | 0.00 | 0.00 | 76 | 1011.3 |
| 20260509150020 | 62 | 261 | 0.0 | 3.0 | 0.00 | 0.00 | 0.00 | 75 | 1011.4 |
| 20260509144519 | 62 | 223 | 0.0 | 7.0 | 0.00 | 0.00 | 0.00 | 76 | 1011.3 |
| 20260509143022 | 62 | 220 | 0.0 | 10.0 | 0.00 | 0.00 | 0.00 | 75 | 1011.3 |
| 20260509141524 | 63 | 198 | 0.0 | 6.0 | 0.00 | 0.00 | 0.00 | 75 | 1010.9 |
| 20260509140017 | 62 | 162 | 0.0 | 4.0 | 0.00 | 0.00 | 0.00 | 78 | 1010.9 |
| 20260509134513 | 61 | 173 | 1.0 | 7.0 | 0.00 | 0.00 | 0.00 | 80 | 1010.9 |
| 20260509133012 | 60 | 138 | 0.0 | 6.0 | 0.00 | 0.00 | 0.00 | 80 | 1010.9 |
| 20260509131509 | 60 | 222 | 0.0 | 5.0 | 0.00 | 0.00 | 0.00 | 81 | 1010.9 |